User: anonymous   Login
Location: Mentone
(34.5413°N, 85.5351°W)
Time: 18:48:48
(UTC-06:00)
Language:

Okean O Rocket - Orbit

View from above orbital plane
View from above orbital plane
View from above satellite
View from above satellite

Ground track
Ground track

The orbit data is extracted from the following two-line orbital elements,

1 25861U 99039B   14355.53707310  .00000988  00000-0  14402-3 0  8220
2 25861 097.9775 312.2270 0017071 128.9199 005.5958 14.77933149831530
Epoch (UTC): 21 December 2014 12:53:23
Eccentricity: 0.0017071
inclination: 97.9775°
perigee height: 624 km
apogee height: 648 km
right ascension of ascending node: 312.2270°
argument of perigee: 128.9199°
revolutions per day: 14.77933149
mean anomaly at epoch: 5.5958°
orbit number at epoch: 83153

The dashed part of the orbit path shows where the satellite is in the earth's shadow,  

DLR